Time,TemperatureF,DewpointF,PressureIn,WindDirection,WindDirectionDegrees,WindSpeedMPH,WindSpeedGustMPH,Humidity,HourlyPrecipIn,Conditions,Clouds,dailyrainin,SolarRadiationWatts/m^2,SoftwareType,DateUTC
2013-04-11 00:00:00,35.8,19.5,29.88,NNE,32,3.0,4.0,51,0.00,,---,0.00,91.00,VWS V14.00,2013-04-11 05:00:00,
2013-04-11 00:05:00,35.6,19.3,29.86,NE,40,1.0,1.0,51,0.00,,---,0.00,91.00,VWS V14.00,2013-04-11 05:05:00,
2013-04-11 00:10:00,35.5,19.2,29.86,North,1,3.0,7.0,51,0.00,,---,0.00,91.00,VWS V14.00,2013-04-11 05:10:00,
2013-04-11 00:15:00,35.5,19.2,29.86,NNE,25,6.0,6.0,51,0.00,,---,0.00,91.00,VWS V14.00,2013-04-11 05:15:00,
2013-04-11 00:20:00,35.5,19.2,29.86,ENE,59,3.0,3.0,51,0.00,,---,0.00,0.00,VWS V14.00,2013-04-11 05:20:00,
2013-04-11 00:25:00,35.5,19.2,29.86,East,83,2.0,2.0,51,0.00,,---,0.00,0.00,VWS V14.00,2013-04-11 05:25:00,
2013-04-11 00:30:00,35.6,19.3,29.86,North,11,3.0,3.0,51,0.00,,---,0.00,0.00,VWS V14.00,2013-04-11 05:30:00,
2013-04-11 00:35:00,35.6,19.3,29.85,NE,49,13.0,13.0,51,0.00,,---,0.00,0.00,VWS V14.00,2013-04-11 05:35:00,
2013-04-11 00:40:00,35.5,19.2,29.85,NE,41,6.0,6.0,51,0.00,,---,0.00,0.00,VWS V14.00,2013-04-11 05:40:00,
2013-04-11 00:45:00,35.5,19.2,29.85,East,89,2.0,7.0,51,0.00,,---,0.00,0.00,VWS V14.00,2013-04-11 05:45:00,
2013-04-11 00:50:00,35.5,19.2,29.84,ESE,102,3.0,3.0,51,0.00,,---,0.00,0.00,VWS V14.00,2013-04-11 05:50:00,
2013-04-11 00:55:00,35.5,19.2,29.84,NE,45,8.0,8.0,51,0.00,,---,0.01,0.00,VWS V14.00,2013-04-11 05:55:00,
2013-04-11 01:00:00,35.5,19.2,29.84,NE,55,3.0,3.0,51,0.00,,---,0.01,0.00,VWS V14.00,2013-04-11 06:00:00,
2013-04-11 01:05:00,35.5,23.0,29.84,North,4,2.0,6.0,60,0.00,,---,0.01,0.00,VWS V14.00,2013-04-11 06:05:00,
2013-04-11 01:10:00,35.6,23.1,29.84,NE,45,2.0,5.0,60,0.00,,---,0.01,0.00,VWS V14.00,2013-04-11 06:10:00,
2013-04-11 01:15:00,35.6,23.1,29.84,NE,34,10.0,10.0,60,0.00,,---,0.01,0.00,VWS V14.00,2013-04-11 06:15:00,
2013-04-11 01:20:00,35.6,23.1,29.82,NE,34,5.0,6.0,60,0.00,,---,0.01,0.00,VWS V14.00,2013-04-11 06:20:00,
2013-04-11 01:25:00,35.5,23.0,29.82,ENE,71,3.0,3.0,60,0.00,,---,0.01,0.00,VWS V14.00,2013-04-11 06:25:00,
2013-04-11 01:30:00,35.6,22.7,29.82,NE,38,2.0,2.0,59,0.00,,---,0.01,0.00,VWS V14.00,2013-04-11 06:30:00,
2013-04-11 01:35:00,35.6,22.7,29.82,NE,56,4.0,4.0,59,0.00,,---,0.01,0.00,VWS V14.00,2013-04-11 06:35:00,
2013-04-11 01:40:00,35.6,22.7,29.82,ENE,61,4.0,4.0,59,0.00,,---,0.01,0.00,VWS V14.00,2013-04-11 06:40:00,
2013-04-11 01:45:00,35.5,22.6,29.82,ENE,59,1.0,1.0,59,0.00,,---,0.01,0.00,VWS V14.00,2013-04-11 06:45:00,
2013-04-11 01:50:00,35.5,22.6,29.81,East,99,2.0,7.0,59,0.00,,---,0.01,0.00,VWS V14.00,2013-04-11 06:50:00,
2013-04-11 01:55:00,35.5,22.6,29.81,ENE,61,3.0,3.0,59,0.00,,---,0.01,0.00,VWS V14.00,2013-04-11 06:55:00,
2013-04-11 02:00:00,35.5,23.0,29.81,NE,45,3.0,3.0,60,0.00,,---,0.01,0.00,VWS V14.00,2013-04-11 07:00:00,
2013-04-11 02:05:00,35.5,23.0,29.81,NNE,32,2.0,7.0,60,0.00,,---,0.01,0.00,VWS V14.00,2013-04-11 07:05:00,
2013-04-11 02:10:00,35.3,22.8,29.81,East,90,5.0,5.0,60,0.00,,---,0.01,0.00,VWS V14.00,2013-04-11 07:10:00,
2013-04-11 02:15:00,35.3,22.8,29.81,ENE,65,8.0,8.0,60,0.00,,---,0.01,0.00,VWS V14.00,2013-04-11 07:15:00,
2013-04-11 02:20:00,35.3,22.8,29.80,NE,51,6.0,10.0,60,0.00,,---,0.01,0.00,VWS V14.00,2013-04-11 07:20:00,
2013-04-11 02:25:00,35.3,22.8,29.80,NE,37,5.0,5.0,60,0.00,,---,0.01,0.00,VWS V14.00,2013-04-11 07:25:00,
2013-04-11 02:30:00,35.3,22.8,29.80,NNE,24,10.0,10.0,60,0.00,,---,0.01,0.00,VWS V14.00,2013-04-11 07:30:00,
2013-04-11 02:35:00,35.5,23.0,29.78,NE,49,3.0,9.0,60,0.00,,---,0.01,0.00,VWS V14.00,2013-04-11 07:35:00,
2013-04-11 02:40:00,35.5,23.0,29.78,ENE,73,1.0,6.0,60,0.00,,---,0.01,0.00,VWS V14.00,2013-04-11 07:40:00,
2013-04-11 02:45:00,35.5,23.0,29.78,ESE,113,8.0,8.0,60,0.00,,---,0.01,0.00,VWS V14.00,2013-04-11 07:45:00,
2013-04-11 02:50:00,35.6,23.1,29.76,East,82,5.0,7.0,60,0.00,,---,0.01,0.00,VWS V14.00,2013-04-11 07:50:00,
2013-04-11 02:55:00,35.8,23.3,29.76,NE,56,6.0,6.0,60,0.00,,---,0.01,0.00,VWS V14.00,2013-04-11 07:55:00,
2013-04-11 03:00:00,35.8,23.3,29.76,NE,44,7.0,7.0,60,0.00,,---,0.01,0.00,VWS V14.00,2013-04-11 08:00:00,
2013-04-11 03:05:00,35.8,23.3,29.76,ENE,66,7.0,7.0,60,0.00,,---,0.01,0.00,VWS V14.00,2013-04-11 08:05:00,
2013-04-11 03:10:00,35.8,23.3,29.76,ESE,107,13.0,13.0,60,0.00,,---,0.01,0.00,VWS V14.00,2013-04-11 08:10:00,
2013-04-11 03:15:00,35.8,23.3,29.76,East,82,12.0,12.0,60,0.00,,---,0.01,0.00,VWS V14.00,2013-04-11 08:15:00,
2013-04-11 03:20:00,35.8,19.5,29.76,East,85,2.0,11.0,51,0.00,,---,0.01,0.00,VWS V14.00,2013-04-11 08:20:00,
2013-04-11 03:25:00,35.5,19.2,29.76,East,95,5.0,7.0,51,0.00,,---,0.01,0.00,VWS V14.00,2013-04-11 08:25:00,
2013-04-11 03:30:00,35.5,19.2,29.76,ESE,103,6.0,6.0,51,0.00,,---,0.01,0.00,VWS V14.00,2013-04-11 08:30:00,
2013-04-11 03:35:00,35.5,19.2,29.76,NNE,23,8.0,8.0,51,0.00,,---,0.01,0.00,VWS V14.00,2013-04-11 08:35:00,
2013-04-11 03:40:00,35.5,19.6,29.76,North,0,8.0,8.0,52,0.00,,---,0.01,0.00,VWS V14.00,2013-04-11 08:40:00,
2013-04-11 03:45:00,35.0,19.2,29.76,East,92,6.0,7.0,52,0.00,,---,0.01,0.00,VWS V14.00,2013-04-11 08:45:00,
2013-04-11 03:50:00,34.9,19.1,29.76,North,10,6.0,6.0,52,0.00,,---,0.01,0.00,VWS V14.00,2013-04-11 08:50:00,
2013-04-11 03:55:00,34.4,18.6,29.76,ENE,65,6.0,6.0,52,0.00,,---,0.01,0.00,VWS V14.00,2013-04-11 08:55:00,
2013-04-11 04:00:00,34.1,18.3,29.76,East,86,7.0,7.0,52,0.00,,---,0.01,0.00,VWS V14.00,2013-04-11 09:00:00,
2013-04-11 04:05:00,34.1,18.3,29.76,East,92,6.0,6.0,52,0.00,,---,0.01,0.00,VWS V14.00,2013-04-11 09:05:00,
2013-04-11 04:10:00,34.1,18.3,29.76,East,100,4.0,8.0,52,0.00,,---,0.01,0.00,VWS V14.00,2013-04-11 09:10:00,
2013-04-11 04:15:00,34.1,18.3,29.76,NE,45,12.0,12.0,52,0.00,,---,0.01,0.00,VWS V14.00,2013-04-11 09:15:00,
2013-04-11 04:20:00,34.0,18.2,29.75,NE,56,6.0,6.0,52,0.00,,---,0.01,0.00,VWS V14.00,2013-04-11 09:20:00,
2013-04-11 04:25:00,34.0,18.2,29.75,ENE,75,11.0,11.0,52,0.00,,---,0.01,0.00,VWS V14.00,2013-04-11 09:25:00,
2013-04-11 04:30:00,34.1,18.3,29.75,ENE,76,10.0,10.0,52,0.00,,---,0.01,0.00,VWS V14.00,2013-04-11 09:30:00,
2013-04-11 04:35:00,34.3,19.8,29.74,East,89,7.0,11.0,55,0.00,,---,0.01,0.00,VWS V14.00,2013-04-11 09:35:00,
2013-04-11 04:40:00,34.1,20.5,29.74,ENE,61,7.0,13.0,57,0.00,,---,0.01,0.00,VWS V14.00,2013-04-11 09:40:00,
2013-04-11 04:45:00,34.0,20.8,29.74,ENE,59,6.0,6.0,58,0.00,,---,0.01,0.00,VWS V14.00,2013-04-11 09:45:00,
2013-04-11 04:50:00,33.8,21.4,29.72,ENE,68,10.0,11.0,60,0.00,,---,0.01,0.00,VWS V14.00,2013-04-11 09:50:00,
2013-04-11 04:55:00,33.7,21.3,29.72,NE,44,8.0,8.0,60,0.00,,---,0.01,0.00,VWS V14.00,2013-04-11 09:55:00,
2013-04-11 05:00:00,33.7,21.7,29.72,NE,38,6.0,10.0,61,0.00,,---,0.01,0.00,VWS V14.00,2013-04-11 10:00:00,
2013-04-11 05:05:00,33.5,21.5,29.71,NE,37,7.0,8.0,61,0.00,,---,0.01,0.00,VWS V14.00,2013-04-11 10:05:00,
2013-04-11 05:10:00,33.5,21.5,29.71,NE,41,7.0,7.0,61,0.00,,---,0.01,0.00,VWS V14.00,2013-04-11 10:10:00,
2013-04-11 05:15:00,33.2,21.2,29.71,NE,52,5.0,13.0,61,0.00,,---,0.01,0.00,VWS V14.00,2013-04-11 10:15:00,
2013-04-11 05:20:00,33.2,21.2,29.70,ENE,71,2.0,5.0,61,0.00,,---,0.01,0.00,VWS V14.00,2013-04-11 10:20:00,
2013-04-11 05:25:00,32.8,23.8,29.70,NNE,28,14.0,14.0,69,0.00,,---,0.01,0.00,VWS V14.00,2013-04-11 10:25:00,
2013-04-11 05:30:00,32.8,23.8,29.70,NE,49,4.0,4.0,69,0.00,,---,0.01,0.00,VWS V14.00,2013-04-11 10:30:00,
2013-04-11 05:35:00,32.5,23.5,29.71,NNE,14,7.0,7.0,69,0.00,,---,0.01,0.00,VWS V14.00,2013-04-11 10:35:00,
2013-04-11 05:40:00,32.5,23.5,29.71,East,90,3.0,3.0,69,0.00,,---,0.01,0.00,VWS V14.00,2013-04-11 10:40:00,
2013-04-11 05:45:00,32.4,24.1,29.71,East,99,0.0,0.0,71,0.00,,---,0.01,0.00,VWS V14.00,2013-04-11 10:45:00,
2013-04-11 05:50:00,32.4,24.1,29.72,NNE,20,7.0,7.0,71,0.00,,---,0.01,0.00,VWS V14.00,2013-04-11 10:50:00,
2013-04-11 05:55:00,32.4,24.4,29.72,East,90,0.0,0.0,72,0.00,,---,0.01,0.00,VWS V14.00,2013-04-11 10:55:00,
2013-04-11 06:00:00,32.4,24.4,29.72,ESE,119,2.0,2.0,72,0.00,,---,0.01,0.00,VWS V14.00,2013-04-11 11:00:00,
2013-04-11 06:05:00,32.4,24.4,29.75,East,83,0.0,0.0,72,0.00,,---,0.01,0.00,VWS V14.00,2013-04-11 11:05:00,
2013-04-11 06:10:00,32.4,24.4,29.75,East,79,0.0,0.0,72,0.00,,---,0.01,0.00,VWS V14.00,2013-04-11 11:10:00,
2013-04-11 06:15:00,32.4,24.4,29.75,East,85,1.0,1.0,72,0.00,,---,0.01,0.00,VWS V14.00,2013-04-11 11:15:00,
2013-04-11 06:20:00,32.2,24.2,29.78,East,85,0.0,0.0,72,0.00,,---,0.01,0.00,VWS V14.00,2013-04-11 11:20:00,
2013-04-11 06:25:00,32.2,24.2,29.78,East,85,0.0,0.0,72,0.00,,---,0.01,0.00,VWS V14.00,2013-04-11 11:25:00,
2013-04-11 06:30:00,32.2,24.2,29.78,East,85,0.0,0.0,72,0.00,,---,0.01,0.00,VWS V14.00,2013-04-11 11:30:00,
2013-04-11 06:35:00,31.8,23.8,29.78,East,85,1.0,1.0,72,0.00,,---,0.01,0.00,VWS V14.00,2013-04-11 11:35:00,
2013-04-11 06:40:00,31.8,23.8,29.78,NE,56,1.0,1.0,72,0.00,,---,0.01,0.00,VWS V14.00,2013-04-11 11:40:00,
2013-04-11 06:45:00,31.3,23.3,29.78,NNE,31,2.0,2.0,72,0.00,,---,0.01,0.00,VWS V14.00,2013-04-11 11:45:00,
2013-04-11 06:50:00,31.2,23.2,29.76,NE,35,2.0,2.0,72,0.00,,---,0.01,0.00,VWS V14.00,2013-04-11 11:50:00,
2013-04-11 06:54:00,31.0,23.0,29.76,NNE,31,2.0,2.0,72,0.00,,---,0.01,0.00,VWS V14.00,2013-04-11 11:54:00,
2013-04-11 06:59:00,30.7,22.8,29.76,ENE,61,2.0,3.0,72,0.00,,---,0.01,0.00,VWS V14.00,2013-04-11 11:59:00,
2013-04-11 07:04:00,30.6,26.9,29.74,East,79,2.0,4.0,86,0.00,,---,0.01,0.00,VWS V14.00,2013-04-11 12:04:00,
2013-04-11 07:09:00,30.4,26.7,29.74,North,0,2.0,2.0,86,0.00,,---,0.01,0.00,VWS V14.00,2013-04-11 12:09:00,
2013-04-11 07:14:00,30.3,26.9,29.74,NNE,28,2.0,2.0,87,0.00,,---,0.01,0.00,VWS V14.00,2013-04-11 12:14:00,
2013-04-11 07:19:00,30.1,27.0,29.75,NNE,14,0.0,3.0,88,0.00,,---,0.01,0.00,VWS V14.00,2013-04-11 12:19:00,
2013-04-11 07:24:00,30.1,27.0,29.75,ENE,64,2.0,2.0,88,0.00,,---,0.01,0.00,VWS V14.00,2013-04-11 12:24:00,
2013-04-11 07:29:00,30.1,27.0,29.75,ENE,69,1.0,1.0,88,0.00,,---,0.01,0.00,VWS V14.00,2013-04-11 12:29:00,
2013-04-11 07:34:00,30.0,27.2,29.75,ENE,66,2.0,2.0,89,0.00,,---,0.01,0.00,VWS V14.00,2013-04-11 12:34:00,
2013-04-11 07:39:00,30.0,27.2,29.75,NE,35,4.0,4.0,89,0.00,,---,0.01,0.00,VWS V14.00,2013-04-11 12:39:00,
2013-04-11 07:44:00,30.0,27.2,29.75,North,359,2.0,3.0,89,0.00,,---,0.01,0.00,VWS V14.00,2013-04-11 12:44:00,
2013-04-11 07:49:00,30.0,27.2,29.74,NE,51,6.0,8.0,89,0.00,,---,0.01,0.00,VWS V14.00,2013-04-11 12:49:00,
2013-04-11 07:54:00,30.0,27.4,29.74,NE,37,3.0,4.0,90,0.00,,---,0.01,0.00,VWS V14.00,2013-04-11 12:54:00,
2013-04-11 07:59:00,29.8,27.2,29.74,ENE,71,5.0,5.0,90,0.00,,---,0.01,0.00,VWS V14.00,2013-04-11 12:59:00,
2013-04-11 08:04:00,29.8,27.2,29.73,ENE,71,6.0,6.0,90,0.00,,---,0.01,0.00,VWS V14.00,2013-04-11 13:04:00,
2013-04-11 08:09:00,29.8,27.2,29.73,NE,48,3.0,6.0,90,0.00,,---,0.01,0.00,VWS V14.00,2013-04-11 13:09:00,
2013-04-11 08:14:00,29.8,27.2,29.73,NE,37,3.0,3.0,90,0.00,,---,0.01,0.00,VWS V14.00,2013-04-11 13:14:00,
2013-04-11 08:19:00,29.8,27.5,29.73,ENE,64,4.0,4.0,91,0.00,,---,0.01,0.00,VWS V14.00,2013-04-11 13:19:00,
2013-04-11 08:24:00,29.8,27.5,29.73,NE,41,4.0,4.0,91,0.00,,---,0.01,0.00,VWS V14.00,2013-04-11 13:24:00,
2013-04-11 08:29:00,29.8,27.5,29.73,ENE,65,7.0,7.0,91,0.00,,---,0.01,0.00,VWS V14.00,2013-04-11 13:29:00,
2013-04-11 08:34:00,29.8,27.5,29.72,East,89,3.0,4.0,91,0.00,,---,0.01,7.00,VWS V14.00,2013-04-11 13:34:00,
2013-04-11 08:39:00,30.0,27.7,29.72,NE,38,2.0,2.0,91,0.00,,---,0.01,9.00,VWS V14.00,2013-04-11 13:39:00,
2013-04-11 08:44:00,30.0,27.7,29.72,NNE,24,5.0,6.0,91,0.00,,---,0.01,14.00,VWS V14.00,2013-04-11 13:44:00,
2013-04-11 08:49:00,30.0,27.7,29.71,ENE,66,2.0,8.0,91,0.00,,---,0.01,12.00,VWS V14.00,2013-04-11 13:49:00,
2013-04-11 08:54:00,30.1,27.8,29.71,NE,54,9.0,9.0,91,0.00,,---,0.01,12.00,VWS V14.00,2013-04-11 13:54:00,
2013-04-11 08:59:00,30.1,27.8,29.71,ENE,78,6.0,6.0,91,0.00,,---,0.01,12.00,VWS V14.00,2013-04-11 13:59:00,
2013-04-11 09:04:00,30.0,27.7,29.71,North,359,2.0,2.0,91,0.00,,---,0.01,12.00,VWS V14.00,2013-04-11 14:04:00,
2013-04-11 09:09:00,30.0,27.7,29.71,ENE,64,4.0,4.0,91,0.00,,---,0.01,12.00,VWS V14.00,2013-04-11 14:09:00,
2013-04-11 09:14:00,30.0,27.7,29.71,ENE,72,5.0,5.0,91,0.00,,---,0.01,12.00,VWS V14.00,2013-04-11 14:14:00,
2013-04-11 09:19:00,30.3,28.0,29.71,NE,42,2.0,3.0,91,0.00,,---,0.01,12.00,VWS V14.00,2013-04-11 14:19:00,
2013-04-11 09:24:00,30.4,28.1,29.71,ESE,114,3.0,3.0,91,0.00,,---,0.01,12.00,VWS V14.00,2013-04-11 14:24:00,
2013-04-11 09:29:00,30.6,28.6,29.71,ENE,76,2.0,2.0,92,0.00,,---,0.01,12.00,VWS V14.00,2013-04-11 14:29:00,
2013-04-11 09:34:00,30.7,28.7,29.70,East,88,6.0,6.0,92,0.00,,---,0.01,12.00,VWS V14.00,2013-04-11 14:34:00,
2013-04-11 09:39:00,30.7,28.7,29.70,East,92,5.0,5.0,92,0.00,,---,0.01,12.00,VWS V14.00,2013-04-11 14:39:00,
2013-04-11 09:44:00,31.0,28.7,29.70,ESE,104,5.0,5.0,91,0.00,,---,0.01,58.00,VWS V14.00,2013-04-11 14:44:00,
2013-04-11 09:49:00,31.2,28.9,29.70,East,85,7.0,7.0,91,0.00,,---,0.01,58.00,VWS V14.00,2013-04-11 14:49:00,
2013-04-11 09:54:00,31.3,29.0,29.70,East,90,10.0,10.0,91,0.00,,---,0.01,58.00,VWS V14.00,2013-04-11 14:54:00,
2013-04-11 09:59:00,31.5,29.2,29.70,ENE,78,10.0,10.0,91,0.00,,---,0.01,84.00,VWS V14.00,2013-04-11 14:59:00,
2013-04-11 10:04:00,31.5,29.2,29.70,East,97,3.0,3.0,91,0.00,,---,0.01,84.00,VWS V14.00,2013-04-11 15:04:00,
2013-04-11 10:09:00,31.5,29.2,29.70,ENE,62,6.0,6.0,91,0.00,,---,0.01,74.00,VWS V14.00,2013-04-11 15:09:00,
2013-04-11 10:14:00,31.6,29.3,29.70,East,92,5.0,5.0,91,0.00,,---,0.01,74.00,VWS V14.00,2013-04-11 15:14:00,
2013-04-11 10:19:00,31.8,29.5,29.70,NNE,31,5.0,10.0,91,0.00,,---,0.01,74.00,VWS V14.00,2013-04-11 15:19:00,
2013-04-11 10:24:00,31.9,29.6,29.70,ENE,72,5.0,5.0,91,0.00,,---,0.01,74.00,VWS V14.00,2013-04-11 15:24:00,
2013-04-11 10:29:00,31.9,29.6,29.70,East,85,5.0,5.0,91,0.00,,---,0.01,74.00,VWS V14.00,2013-04-11 15:29:00,
2013-04-11 10:34:00,32.1,29.2,29.70,NE,51,3.0,12.0,89,0.00,,---,0.01,91.00,VWS V14.00,2013-04-11 15:34:00,
2013-04-11 10:39:00,32.1,29.2,29.70,ENE,71,5.0,5.0,89,0.00,,---,0.01,111.00,VWS V14.00,2013-04-11 15:39:00,
2013-04-11 10:44:00,32.5,29.6,29.70,ENE,58,4.0,4.0,89,0.00,,---,0.01,111.00,VWS V14.00,2013-04-11 15:44:00,
2013-04-11 10:49:00,32.9,30.0,29.69,East,82,3.0,3.0,89,0.00,,---,0.01,111.00,VWS V14.00,2013-04-11 15:49:00,
2013-04-11 10:54:00,32.9,30.0,29.69,ENE,71,5.0,5.0,89,0.00,,---,0.01,111.00,VWS V14.00,2013-04-11 15:54:00,
2013-04-11 10:59:00,32.9,29.5,29.69,East,97,10.0,10.0,87,0.00,,---,0.01,111.00,VWS V14.00,2013-04-11 15:59:00,
2013-04-11 11:04:00,33.2,29.5,29.69,NNE,23,10.0,10.0,86,0.00,,---,0.01,111.00,VWS V14.00,2013-04-11 16:04:00,
2013-04-11 11:09:00,33.4,29.7,29.69,ENE,73,5.0,5.0,86,0.00,,---,0.01,160.00,VWS V14.00,2013-04-11 16:09:00,
2013-04-11 11:14:00,33.4,29.7,29.69,NE,54,7.0,7.0,86,0.00,,---,0.01,160.00,VWS V14.00,2013-04-11 16:14:00,
2013-04-11 11:19:00,33.4,29.7,29.70,ENE,73,3.0,3.0,86,0.00,,---,0.01,160.00,VWS V14.00,2013-04-11 16:19:00,
2013-04-11 11:24:00,33.7,29.7,29.70,NE,48,8.0,8.0,85,0.00,,---,0.01,160.00,VWS V14.00,2013-04-11 16:24:00,
2013-04-11 11:29:00,33.5,29.5,29.70,East,89,7.0,7.0,85,0.00,,---,0.01,202.00,VWS V14.00,2013-04-11 16:29:00,
2013-04-11 11:34:00,33.5,29.5,29.69,East,97,3.0,3.0,85,0.00,,---,0.01,202.00,VWS V14.00,2013-04-11 16:34:00,
2013-04-11 11:39:00,33.5,29.5,29.69,East,100,6.0,6.0,85,0.00,,---,0.01,276.00,VWS V14.00,2013-04-11 16:39:00,
2013-04-11 11:44:00,33.5,29.5,29.69,ESE,120,6.0,6.0,85,0.00,,---,0.01,271.00,VWS V14.00,2013-04-11 16:44:00,
2013-04-11 11:49:00,33.7,29.7,29.70,ENE,73,13.0,13.0,85,0.00,,---,0.01,271.00,VWS V14.00,2013-04-11 16:49:00,
2013-04-11 11:54:00,33.7,29.7,29.70,East,93,6.0,6.0,85,0.00,,---,0.01,271.00,VWS V14.00,2013-04-11 16:54:00,
2013-04-11 11:59:00,33.5,29.5,29.70,East,79,5.0,8.0,85,0.00,,---,0.02,273.00,VWS V14.00,2013-04-11 16:59:00,
2013-04-11 12:04:00,33.5,29.5,29.70,East,79,5.0,5.0,85,0.00,,---,0.02,273.00,VWS V14.00,2013-04-11 17:04:00,
2013-04-11 12:09:00,33.5,29.5,29.70,East,89,3.0,3.0,85,0.04,,---,0.03,273.00,VWS V14.00,2013-04-11 17:09:00,
2013-04-11 12:14:00,33.5,29.5,29.70,ENE,65,11.0,11.0,85,0.04,,---,0.03,273.00,VWS V14.00,2013-04-11 17:14:00,
2013-04-11 12:19:00,33.5,29.8,29.69,East,86,2.0,2.0,86,0.06,,---,0.04,273.00,VWS V14.00,2013-04-11 17:19:00,
2013-04-11 12:24:00,33.7,30.0,29.69,ENE,61,3.0,3.0,86,0.06,,---,0.04,273.00,VWS V14.00,2013-04-11 17:24:00,
2013-04-11 12:29:00,33.7,30.0,29.69,NE,34,3.0,3.0,86,0.06,,---,0.04,273.00,VWS V14.00,2013-04-11 17:29:00,
2013-04-11 12:34:00,33.8,29.8,29.69,ENE,66,8.0,8.0,85,0.04,,---,0.05,255.00,VWS V14.00,2013-04-11 17:34:00,
2013-04-11 12:39:00,33.8,29.8,29.69,East,83,6.0,6.0,85,0.04,,---,0.05,255.00,VWS V14.00,2013-04-11 17:39:00,
2013-04-11 12:44:00,33.8,29.8,29.69,NE,56,5.0,5.0,85,0.04,,---,0.05,255.00,VWS V14.00,2013-04-11 17:44:00,
2013-04-11 12:49:00,33.8,29.8,29.68,East,82,1.0,6.0,85,0.04,,---,0.06,255.00,VWS V14.00,2013-04-11 17:49:00,
2013-04-11 12:54:00,34.0,29.7,29.68,East,79,2.0,5.0,84,0.05,,---,0.06,241.00,VWS V14.00,2013-04-11 17:54:00,
2013-04-11 12:59:00,34.0,29.7,29.68,ENE,71,4.0,4.0,84,0.05,,---,0.06,241.00,VWS V14.00,2013-04-11 17:59:00,
2013-04-11 13:04:00,34.0,29.7,29.67,ENE,62,6.0,6.0,84,0.07,,---,0.07,241.00,VWS V14.00,2013-04-11 18:04:00,
2013-04-11 13:09:00,34.0,29.7,29.67,East,85,5.0,5.0,84,0.07,,---,0.07,253.00,VWS V14.00,2013-04-11 18:09:00,
2013-04-11 13:14:00,34.0,29.7,29.67,East,92,6.0,6.0,84,0.07,,---,0.08,253.00,VWS V14.00,2013-04-11 18:14:00,
2013-04-11 13:19:00,34.1,29.8,29.67,NE,54,7.0,7.0,84,0.05,,---,0.08,253.00,VWS V14.00,2013-04-11 18:19:00,
2013-04-11 13:24:00,34.3,29.7,29.67,ESE,119,5.0,5.0,83,0.05,,---,0.08,253.00,VWS V14.00,2013-04-11 18:24:00,
2013-04-11 13:29:00,34.1,29.5,29.67,ENE,78,7.0,7.0,83,0.05,,---,0.08,215.00,VWS V14.00,2013-04-11 18:29:00,
2013-04-11 13:34:00,34.1,29.5,29.66,ESE,116,7.0,7.0,83,0.05,,---,0.10,215.00,VWS V14.00,2013-04-11 18:34:00,
2013-04-11 13:39:00,34.1,29.5,29.66,ESE,116,7.0,7.0,83,0.05,,---,0.10,215.00,VWS V14.00,2013-04-11 18:39:00,
2013-04-11 13:44:00,34.1,29.5,29.66,ESE,116,7.0,7.0,83,0.00,,---,0.10,215.00,VWS V14.00,2013-04-11 18:44:00,
2013-04-11 13:49:00,34.1,29.5,29.64,ESE,116,7.0,7.0,83,0.00,,---,0.10,215.00,VWS V14.00,2013-04-11 18:49:00,
2013-04-11 13:54:00,34.1,29.5,29.64,ESE,116,7.0,7.0,83,0.00,,---,0.10,215.00,VWS V14.00,2013-04-11 18:54:00,
2013-04-11 13:59:00,34.1,29.5,29.64,ESE,116,7.0,7.0,83,0.00,,---,0.10,215.00,VWS V14.00,2013-04-11 18:59:00,
2013-04-11 14:04:00,34.1,29.5,29.64,ESE,116,7.0,7.0,83,0.00,,---,0.10,215.00,VWS V14.00,2013-04-11 19:04:00,
2013-04-11 14:09:00,34.1,29.5,29.64,ESE,116,7.0,7.0,83,0.00,,---,0.10,215.00,VWS V14.00,2013-04-11 19:09:00,
2013-04-11 14:14:00,34.1,29.5,29.64,ESE,116,7.0,7.0,83,0.00,,---,0.10,215.00,VWS V14.00,2013-04-11 19:14:00,
2013-04-11 14:19:00,34.1,29.5,29.64,ESE,116,7.0,7.0,83,0.00,,---,0.10,215.00,VWS V14.00,2013-04-11 19:19:00,
2013-04-11 14:24:00,34.1,29.5,29.64,ESE,116,7.0,7.0,83,0.00,,---,0.10,215.00,VWS V14.00,2013-04-11 19:24:00,
2013-04-11 14:29:00,34.1,29.5,29.64,ESE,116,7.0,7.0,83,0.00,,---,0.10,215.00,VWS V14.00,2013-04-11 19:29:00,
2013-04-11 14:34:00,34.1,29.5,29.64,ESE,116,7.0,7.0,83,0.00,,---,0.10,215.00,VWS V14.00,2013-04-11 19:34:00,
2013-04-11 14:39:00,34.1,29.5,29.64,ESE,116,7.0,7.0,83,0.00,,---,0.10,215.00,VWS V14.00,2013-04-11 19:39:00,
2013-04-11 14:44:00,34.1,29.5,29.64,ESE,116,7.0,7.0,83,0.00,,---,0.10,215.00,VWS V14.00,2013-04-11 19:44:00,
2013-04-11 14:49:00,34.1,29.5,29.65,ESE,116,7.0,7.0,83,0.00,,---,0.10,215.00,VWS V14.00,2013-04-11 19:49:00,
2013-04-11 14:54:00,34.1,29.5,29.65,ESE,116,7.0,7.0,83,0.00,,---,0.10,215.00,VWS V14.00,2013-04-11 19:54:00,
2013-04-11 14:59:00,34.1,29.5,29.65,ESE,116,7.0,7.0,83,0.00,,---,0.10,215.00,VWS V14.00,2013-04-11 19:59:00,
2013-04-11 15:04:00,34.1,29.5,29.64,ESE,116,7.0,7.0,83,0.00,,---,0.10,215.00,VWS V14.00,2013-04-11 20:04:00,
2013-04-11 15:09:00,34.1,29.5,29.64,ESE,116,7.0,7.0,83,0.00,,---,0.10,215.00,VWS V14.00,2013-04-11 20:09:00,
2013-04-11 15:14:00,34.1,29.5,29.64,ESE,116,7.0,7.0,83,0.00,,---,0.10,215.00,VWS V14.00,2013-04-11 20:14:00,
2013-04-11 15:19:00,34.1,29.5,29.65,ESE,116,7.0,7.0,83,0.00,,---,0.10,215.00,VWS V14.00,2013-04-11 20:19:00,
2013-04-11 15:24:00,34.1,29.5,29.65,ESE,116,7.0,7.0,83,0.00,,---,0.10,215.00,VWS V14.00,2013-04-11 20:24:00,
2013-04-11 15:29:00,34.1,29.5,29.65,ESE,116,7.0,7.0,83,0.00,,---,0.10,215.00,VWS V14.00,2013-04-11 20:29:00,
2013-04-11 15:34:00,34.1,29.5,29.65,ESE,116,7.0,7.0,83,0.00,,---,0.10,215.00,VWS V14.00,2013-04-11 20:34:00,
2013-04-11 15:39:00,34.1,29.5,29.65,ESE,116,7.0,7.0,83,0.00,,---,0.10,215.00,VWS V14.00,2013-04-11 20:39:00,
2013-04-11 15:44:00,34.1,29.5,29.65,ESE,116,7.0,7.0,83,0.00,,---,0.10,215.00,VWS V14.00,2013-04-11 20:44:00,
2013-04-11 15:49:00,34.1,29.5,29.65,ESE,116,7.0,7.0,83,0.00,,---,0.10,215.00,VWS V14.00,2013-04-11 20:49:00,
2013-04-11 15:54:00,34.1,29.5,29.65,ESE,116,7.0,7.0,83,0.00,,---,0.10,215.00,VWS V14.00,2013-04-11 20:54:00,
2013-04-11 15:59:00,34.1,29.5,29.65,ESE,116,7.0,7.0,83,0.00,,---,0.10,215.00,VWS V14.00,2013-04-11 20:59:00,
2013-04-11 16:04:00,34.1,29.5,29.65,ESE,116,7.0,7.0,83,0.00,,---,0.10,215.00,VWS V14.00,2013-04-11 21:04:00,
2013-04-11 16:09:00,34.1,29.5,29.65,ESE,116,7.0,7.0,83,0.00,,---,0.10,215.00,VWS V14.00,2013-04-11 21:09:00,
2013-04-11 16:14:00,34.1,29.5,29.65,ESE,116,7.0,7.0,83,0.00,,---,0.10,215.00,VWS V14.00,2013-04-11 21:14:00,
2013-04-11 16:19:00,34.1,29.5,29.65,ESE,116,7.0,7.0,83,0.00,,---,0.10,215.00,VWS V14.00,2013-04-11 21:19:00,
2013-04-11 16:24:00,34.1,29.5,29.65,ESE,116,7.0,7.0,83,0.00,,---,0.10,215.00,VWS V14.00,2013-04-11 21:24:00,
2013-04-11 16:29:00,34.1,29.5,29.65,ESE,116,7.0,7.0,83,0.00,,---,0.10,215.00,VWS V14.00,2013-04-11 21:29:00,
2013-04-11 16:34:00,34.1,29.5,29.64,ESE,116,7.0,7.0,83,0.00,,---,0.10,215.00,VWS V14.00,2013-04-11 21:34:00,
2013-04-11 16:39:00,34.1,29.5,29.64,ESE,116,7.0,7.0,83,0.00,,---,0.10,215.00,VWS V14.00,2013-04-11 21:39:00,
2013-04-11 16:44:00,34.1,29.5,29.64,ESE,116,7.0,7.0,83,0.00,,---,0.10,215.00,VWS V14.00,2013-04-11 21:44:00,
2013-04-11 16:49:00,34.1,29.5,29.64,ESE,116,7.0,7.0,83,0.00,,---,0.10,215.00,VWS V14.00,2013-04-11 21:49:00,
2013-04-11 16:54:00,34.1,29.5,29.64,ESE,116,7.0,7.0,83,0.00,,---,0.10,215.00,VWS V14.00,2013-04-11 21:54:00,
2013-04-11 16:59:00,34.1,29.5,29.64,ESE,116,7.0,7.0,83,0.00,,---,0.10,215.00,VWS V14.00,2013-04-11 21:59:00,
2013-04-11 17:04:00,34.1,29.5,29.65,ESE,116,7.0,7.0,83,0.00,,---,0.10,215.00,VWS V14.00,2013-04-11 22:04:00,
2013-04-11 17:09:00,34.1,29.5,29.65,ESE,116,7.0,7.0,83,0.00,,---,0.10,215.00,VWS V14.00,2013-04-11 22:09:00,
2013-04-11 17:14:00,34.1,29.5,29.65,ESE,116,7.0,7.0,83,0.00,,---,0.10,215.00,VWS V14.00,2013-04-11 22:14:00,
2013-04-11 17:19:00,34.1,29.5,29.65,ESE,116,7.0,7.0,83,0.00,,---,0.10,215.00,VWS V14.00,2013-04-11 22:19:00,
2013-04-11 17:24:00,34.1,29.5,29.65,ESE,116,7.0,7.0,83,0.00,,---,0.10,215.00,VWS V14.00,2013-04-11 22:24:00,
2013-04-11 17:29:00,34.1,29.5,29.65,ESE,116,7.0,7.0,83,0.00,,---,0.10,215.00,VWS V14.00,2013-04-11 22:29:00,
2013-04-11 17:34:00,34.1,29.5,29.65,ESE,116,7.0,7.0,83,0.00,,---,0.10,215.00,VWS V14.00,2013-04-11 22:34:00,
2013-04-11 17:39:00,34.1,29.5,29.65,ESE,116,7.0,7.0,83,0.00,,---,0.10,215.00,VWS V14.00,2013-04-11 22:39:00,
2013-04-11 17:44:00,34.1,29.5,29.65,ESE,116,7.0,7.0,83,0.00,,---,0.10,215.00,VWS V14.00,2013-04-11 22:44:00,
2013-04-11 17:49:00,34.1,29.5,29.65,ESE,116,7.0,7.0,83,0.00,,---,0.10,215.00,VWS V14.00,2013-04-11 22:49:00,
2013-04-11 17:54:00,34.1,29.5,29.65,ESE,116,7.0,7.0,83,0.00,,---,0.10,215.00,VWS V14.00,2013-04-11 22:54:00,
2013-04-11 17:59:00,34.1,29.5,29.65,ESE,116,7.0,7.0,83,0.00,,---,0.10,215.00,VWS V14.00,2013-04-11 22:59:00,
2013-04-11 18:04:00,34.1,29.5,29.65,ESE,116,7.0,7.0,83,0.00,,---,0.10,215.00,VWS V14.00,2013-04-11 23:04:00,
2013-04-11 18:09:00,34.1,29.5,29.65,ESE,116,7.0,7.0,83,0.00,,---,0.10,215.00,VWS V14.00,2013-04-11 23:09:00,
2013-04-11 18:14:00,33.4,28.8,29.65,NE,44,3.0,7.0,83,0.00,,---,0.10,215.00,VWS V14.00,2013-04-11 23:14:00,
2013-04-11 18:19:00,33.4,30.5,29.66,NE,48,8.0,8.0,89,0.00,,---,0.10,33.00,VWS V14.00,2013-04-11 23:19:00,
2013-04-11 18:24:00,33.4,30.5,29.66,ENE,59,3.0,8.0,89,0.00,,---,0.10,33.00,VWS V14.00,2013-04-11 23:24:00,
2013-04-11 18:29:00,33.4,30.5,29.66,ENE,68,4.0,8.0,89,0.00,,---,0.10,33.00,VWS V14.00,2013-04-11 23:29:00,
2013-04-11 18:34:00,33.4,30.5,29.65,NNE,31,1.0,8.0,89,0.00,,---,0.29,33.00,VWS V14.00,2013-04-11 23:34:00,
2013-04-11 18:39:00,33.4,30.5,29.65,NE,47,4.0,8.0,89,0.00,,---,0.29,33.00,VWS V14.00,2013-04-11 23:39:00,
2013-04-11 18:44:00,33.4,30.5,29.65,ENE,64,7.0,8.0,89,0.00,,---,0.29,33.00,VWS V14.00,2013-04-11 23:44:00,
2013-04-11 18:49:00,33.4,30.5,29.66,ENE,64,7.0,8.0,89,0.00,,---,0.29,33.00,VWS V14.00,2013-04-11 23:49:00,
2013-04-11 18:54:00,33.4,30.5,29.66,ENE,65,4.0,5.0,89,0.00,,---,0.29,16.00,VWS V14.00,2013-04-11 23:54:00,
2013-04-11 18:59:00,33.4,30.5,29.66,ENE,65,4.0,4.0,89,0.00,,---,0.29,16.00,VWS V14.00,2013-04-11 23:59:00,
2013-04-11 19:04:00,33.4,30.5,29.65,ENE,65,4.0,4.0,89,0.00,,---,0.29,16.00,VWS V14.00,2013-04-12 00:04:00,
2013-04-11 19:09:00,33.4,30.5,29.65,ENE,65,4.0,4.0,89,0.00,,---,0.29,16.00,VWS V14.00,2013-04-12 00:09:00,
2013-04-11 19:14:00,33.4,30.5,29.65,ENE,65,4.0,4.0,89,0.00,,---,0.29,16.00,VWS V14.00,2013-04-12 00:14:00,
2013-04-11 19:19:00,33.4,30.5,29.65,ENE,65,4.0,4.0,89,0.00,,---,0.29,16.00,VWS V14.00,2013-04-12 00:19:00,
2013-04-11 19:24:00,33.4,30.5,29.65,ENE,65,4.0,4.0,89,0.00,,---,0.29,16.00,VWS V14.00,2013-04-12 00:24:00,
2013-04-11 19:29:00,33.4,30.5,29.65,NE,56,3.0,3.0,89,0.00,,---,0.29,16.00,VWS V14.00,2013-04-12 00:29:00,
2013-04-11 19:34:00,33.4,30.5,29.64,NE,56,3.0,3.0,89,0.00,,---,0.29,16.00,VWS V14.00,2013-04-12 00:34:00,
2013-04-11 19:39:00,33.4,30.8,29.64,ENE,59,8.0,8.0,90,0.00,,---,0.29,16.00,VWS V14.00,2013-04-12 00:39:00,
2013-04-11 19:44:00,33.4,30.8,29.64,ENE,59,8.0,8.0,90,0.00,,---,0.29,16.00,VWS V14.00,2013-04-12 00:44:00,
2013-04-11 19:49:00,33.4,30.8,29.64,NNE,30,6.0,6.0,90,0.00,,---,0.29,16.00,VWS V14.00,2013-04-12 00:49:00,
2013-04-11 19:54:00,33.4,30.8,29.64,NNE,30,6.0,6.0,90,0.00,,---,0.29,16.00,VWS V14.00,2013-04-12 00:54:00,
2013-04-11 19:59:00,32.4,30.1,29.64,NNE,24,5.0,5.0,91,0.00,,---,0.31,0.00,VWS V14.00,2013-04-12 00:59:00,
2013-04-11 20:04:00,32.4,30.1,29.64,NNE,24,5.0,5.0,91,0.00,,---,0.31,0.00,VWS V14.00,2013-04-12 01:04:00,
2013-04-11 20:09:00,32.4,30.1,29.64,NNE,24,5.0,5.0,91,0.00,,---,0.31,0.00,VWS V14.00,2013-04-12 01:09:00,
2013-04-11 20:14:00,32.4,30.1,29.64,NNE,24,5.0,5.0,91,0.00,,---,0.31,0.00,VWS V14.00,2013-04-12 01:14:00,
2013-04-11 20:19:00,32.4,30.1,29.64,NNE,30,5.0,5.0,91,0.00,,---,0.31,0.00,VWS V14.00,2013-04-12 01:19:00,
2013-04-11 20:24:00,32.2,29.9,29.64,ENE,72,2.0,2.0,91,0.00,,---,0.31,0.00,VWS V14.00,2013-04-12 01:24:00,
2013-04-11 20:29:00,32.2,29.9,29.64,ENE,72,2.0,2.0,91,0.00,,---,0.31,0.00,VWS V14.00,2013-04-12 01:29:00,
2013-04-11 20:34:00,32.2,29.9,29.65,NE,40,1.0,1.0,91,0.00,,---,0.31,0.00,VWS V14.00,2013-04-12 01:34:00,
2013-04-11 20:39:00,32.2,29.9,29.65,North,6,1.0,1.0,91,0.00,,---,0.31,0.00,VWS V14.00,2013-04-12 01:39:00,
2013-04-11 20:44:00,32.2,29.9,29.65,NNW,343,2.0,2.0,91,0.00,,---,0.31,0.00,VWS V14.00,2013-04-12 01:44:00,
2013-04-11 20:49:00,32.1,29.8,29.65,East,93,4.0,4.0,91,0.00,,---,0.31,0.00,VWS V14.00,2013-04-12 01:49:00,
2013-04-11 20:54:00,32.1,29.8,29.65,ENE,71,2.0,2.0,91,0.00,,---,0.31,0.00,VWS V14.00,2013-04-12 01:54:00,
2013-04-11 20:59:00,32.1,29.8,29.65,ENE,71,2.0,2.0,91,0.00,,---,0.31,0.00,VWS V14.00,2013-04-12 01:59:00,
2013-04-11 21:07:00,31.9,29.6,29.65,NNE,21,4.0,6.0,91,0.00,,---,0.31,0.00,VWS V14.00,2013-04-12 02:07:00,
2013-04-11 21:12:00,31.9,29.6,29.65,ENE,66,4.0,5.0,91,0.00,,---,0.31,0.00,VWS V14.00,2013-04-12 02:12:00,
2013-04-11 21:17:00,31.8,29.5,29.65,NE,55,6.0,6.0,91,0.00,,---,0.31,0.00,VWS V14.00,2013-04-12 02:17:00,
2013-04-11 21:22:00,31.6,29.3,29.65,ENE,76,5.0,5.0,91,0.00,,---,0.31,0.00,VWS V14.00,2013-04-12 02:22:00,
2013-04-11 21:27:00,31.6,29.3,29.65,NE,54,4.0,4.0,91,0.00,,---,0.31,0.00,VWS V14.00,2013-04-12 02:27:00,
2013-04-11 21:32:00,31.5,29.2,29.65,ENE,64,11.0,11.0,91,0.00,,---,0.31,0.00,VWS V14.00,2013-04-12 02:32:00,
2013-04-11 21:37:00,31.5,29.2,29.65,ENE,64,11.0,11.0,91,0.00,,---,0.31,0.00,VWS V14.00,2013-04-12 02:37:00,
2013-04-11 21:42:00,31.5,29.2,29.65,ENE,64,11.0,11.0,91,0.00,,---,0.31,0.00,VWS V14.00,2013-04-12 02:42:00,
2013-04-11 21:47:00,31.0,28.7,29.65,NE,45,5.0,5.0,91,0.00,,---,0.31,0.00,VWS V14.00,2013-04-12 02:47:00,
2013-04-11 21:52:00,30.9,28.6,29.65,ENE,64,2.0,2.0,91,0.00,,---,0.31,0.00,VWS V14.00,2013-04-12 02:52:00,
2013-04-11 21:57:00,30.9,28.6,29.65,East,80,2.0,2.0,91,0.00,,---,0.31,0.00,VWS V14.00,2013-04-12 02:57:00,
2013-04-11 22:02:00,30.9,28.6,29.65,ENE,78,2.0,6.0,91,0.00,,---,0.31,0.00,VWS V14.00,2013-04-12 03:02:00,
2013-04-11 22:07:00,30.9,28.6,29.65,NE,47,1.0,3.0,91,0.00,,---,0.31,0.00,VWS V14.00,2013-04-12 03:07:00,
2013-04-11 22:12:00,30.9,28.6,29.65,NE,56,5.0,5.0,91,0.00,,---,0.31,0.00,VWS V14.00,2013-04-12 03:12:00,
2013-04-11 22:17:00,30.9,28.6,29.65,ENE,68,2.0,4.0,91,0.00,,---,0.31,0.00,VWS V14.00,2013-04-12 03:17:00,
2013-04-11 22:22:00,31.0,28.7,29.65,NNE,21,7.0,7.0,91,0.00,,---,0.31,0.00,VWS V14.00,2013-04-12 03:22:00,
2013-04-11 22:27:00,31.0,28.7,29.65,ENE,59,2.0,2.0,91,0.00,,---,0.31,0.00,VWS V14.00,2013-04-12 03:27:00,
2013-04-11 22:32:00,30.9,28.6,29.65,East,92,5.0,5.0,91,0.00,,---,0.31,0.00,VWS V14.00,2013-04-12 03:32:00,
2013-04-11 22:37:00,30.9,28.6,29.65,ENE,78,3.0,6.0,91,0.00,,---,0.31,0.00,VWS V14.00,2013-04-12 03:37:00,
2013-04-11 22:42:00,30.9,28.6,29.65,NE,45,3.0,6.0,91,0.00,,---,0.31,0.00,VWS V14.00,2013-04-12 03:42:00,
2013-04-11 22:47:00,30.9,28.6,29.65,NNE,21,2.0,2.0,91,0.00,,---,0.31,0.00,VWS V14.00,2013-04-12 03:47:00,
2013-04-11 22:52:00,30.9,28.6,29.65,NNE,31,1.0,1.0,91,0.00,,---,0.31,0.00,VWS V14.00,2013-04-12 03:52:00,
2013-04-11 22:57:00,30.9,28.6,29.65,ENE,62,3.0,3.0,91,0.00,,---,0.31,0.00,VWS V14.00,2013-04-12 03:57:00,
2013-04-11 23:00:00,30.7,28.4,29.65,ENE,64,5.0,7.0,91,0.00,,---,0.31,0.00,VWS V14.00,2013-04-12 04:00:00,
2013-04-11 23:05:00,30.7,28.4,29.65,NE,45,3.0,3.0,91,0.00,,---,0.31,0.00,VWS V14.00,2013-04-12 04:05:00,
2013-04-11 23:10:00,30.6,28.0,29.65,NE,38,2.0,8.0,90,0.00,,---,0.31,0.00,VWS V14.00,2013-04-12 04:10:00,
2013-04-11 23:15:00,30.4,27.8,29.65,NE,41,2.0,3.0,90,0.00,,---,0.31,0.00,VWS V14.00,2013-04-12 04:15:00,
2013-04-11 23:20:00,30.4,27.8,29.65,NE,41,6.0,6.0,90,0.00,,---,0.31,0.00,VWS V14.00,2013-04-12 04:20:00,
2013-04-11 23:25:00,30.3,27.7,29.65,NE,41,2.0,5.0,90,0.00,,---,0.31,0.00,VWS V14.00,2013-04-12 04:25:00,
2013-04-11 23:30:00,30.3,27.7,29.65,ENE,58,2.0,3.0,90,0.00,,---,0.31,0.00,VWS V14.00,2013-04-12 04:30:00,
2013-04-11 23:35:00,30.1,27.5,29.65,North,0,2.0,7.0,90,0.00,,---,0.31,0.00,VWS V14.00,2013-04-12 04:35:00,
2013-04-11 23:40:00,30.1,27.5,29.65,NE,35,3.0,3.0,90,0.00,,---,0.31,0.00,VWS V14.00,2013-04-12 04:40:00,
2013-04-11 23:45:00,30.1,27.5,29.65,NE,35,2.0,2.0,90,0.00,,---,0.31,0.00,VWS V14.00,2013-04-12 04:45:00,
2013-04-11 23:50:00,30.1,27.5,29.65,North,354,3.0,3.0,90,0.00,,---,0.31,0.00,VWS V14.00,2013-04-12 04:50:00,
2013-04-11 23:55:00,30.0,27.4,29.65,ENE,59,6.0,6.0,90,0.00,,---,0.31,0.00,VWS V14.00,2013-04-12 04:55:00,